EW7833 Weather Reports


Display with metric or nautical units.
time (UTC)temp
F
wind
direction
speed
MPH
gust
MPH
rain 1hr
in
rain 24hr
in
rain mn
in
humidity
%
barometer
mb
20260510094517 39 278 5.0 8.0 0.00 0.00 0.00 87 1013.1
20260510093013 40 269 5.0 8.0 0.00 0.00 0.00 86 1013.0
20260510091511 40 266 4.0 9.0 0.00 0.00 0.00 86 1012.7
20260510090011 40 265 7.0 9.0 0.00 0.00 0.00 87 1012.5
20260510084508 40 267 6.0 10.0 0.00 0.00 0.00 87 1012.5
20260510083018 40 262 7.0 10.0 0.00 0.00 0.00 85 1012.4
20260510081506 40 244 9.0 12.0 0.00 0.00 0.00 85 1012.2
20260510080003 41 278 9.0 12.0 0.00 0.00 0.00 80 1011.9
20260510074558 41 265 5.0 8.0 0.00 0.00 0.00 79 1011.7
20260510073104 41 264 5.0 7.0 0.00 0.00 0.00 77 1011.5
20260510071555 41 255 5.0 7.0 0.00 0.00 0.00 78 1011.3
20260510070055 42 273 4.0 9.0 0.00 0.00 0.00 75 1011.1
20260510064553 41 260 4.0 10.0 0.00 0.00 0.00 79 1011.0
20260510063050 41 275 3.0 6.0 0.00 0.00 0.00 72 1011.0
20260510061545 39 242 0.0 1.0 0.00 0.00 0.00 74 1010.9
20260510060046 39 129 0.0 1.0 0.00 0.00 0.00 76 1010.8
20260510054542 39 53 0.0 0.0 0.00 0.00 0.00 74 1010.7
20260510053039 40 53 0.0 1.0 0.00 0.00 0.00 69 1010.7
20260510051540 41 49 0.0 1.0 0.00 0.00 0.00 69 1010.5
20260510050040 41 21 0.0 1.0 0.00 0.00 0.00 68 1010.4
20260510044534 41 354 0.0 2.0 0.00 0.00 0.00 66 1010.3
20260510043029 42 6 0.0 3.0 0.00 0.00 0.00 65 1010.1
20260510041526 42 30 0.0 7.0 0.00 0.00 0.00 66 1009.8
20260510040023 42 4 0.0 4.0 0.00 0.00 0.00 65 1009.3
20260510034521 42 330 1.0 3.0 0.00 0.00 0.00 64 1009.4
20260510033019 43 162 0.0 1.0 0.00 0.00 0.00 64 1009.3
20260510031519 43 21 0.0 4.0 0.00 0.00 0.00 61 1009.4
20260510030018 43 15 0.0 2.0 0.00 0.00 0.00 62 1009.3
20260510024518 43 36 0.0 4.0 0.00 0.00 0.00 64 1009.1
20260510023016 43 360 0.0 2.0 0.00 0.00 0.00 66 1009.2
20260510021517 44 326 0.0 5.0 0.00 0.00 0.00 70 1009.1
20260510020012 44 246 0.0 7.0 0.00 0.00 0.00 67 1008.8
20260510014509 44 205 0.0 4.0 0.00 0.00 0.00 67 1008.5
20260510013009 44 198 0.0 3.0 0.00 0.00 0.00 66 1008.3
20260510011509 45 236 0.0 3.0 0.00 0.00 0.00 67 1008.0
20260510010003 45 6 0.0 2.0 0.00 0.00 0.00 66 1007.7
20260510004502 46 11 0.0 4.0 0.00 0.00 0.00 65 1007.5
20260510003058 47 328 0.0 2.0 0.00 0.00 0.00 61 1007.1
20260510001556 48 23 1.0 6.0 0.00 0.00 0.00 60 1006.8
20260510000105 48 124 1.0 6.0 0.00 0.00 0.00 62 1006.4
20260509234559 49 354 0.0 6.0 0.00 0.00 0.00 63 1005.9
20260509233050 49 11 2.0 7.0 0.00 0.00 0.00 60 1005.6
20260509231548 52 331 0.0 6.0 0.00 0.00 0.00 57 1005.2
20260509230045 52 344 2.0 7.0 0.00 0.00 0.00 54 1004.9
20260509224542 53 292 0.0 10.0 0.00 0.00 0.00 57 1004.4
20260509223043 53 62 0.0 5.0 0.00 0.00 0.00 51 1004.2
20260509221543 54 311 1.0 5.0 0.00 0.00 0.00 51 1004.0
20260509220040 55 63 0.0 13.0 0.00 0.00 0.00 50 1003.6
20260509214537 56 285 1.0 15.0 0.00 0.00 0.00 44 1003.3
20260509213039 56 43 0.0 4.0 0.00 0.00 0.00 49 1003.2
20260509211538 55 11 1.0 11.0 0.00 0.00 0.00 45 1002.8
20260509210041 56 264 1.0 17.0 0.00 0.00 0.00 47 1002.4
20260509204539 56 254 1.0 12.0 0.00 0.00 0.00 47 1002.1
20260509203032 54 313 2.0 13.0 0.00 0.00 0.00 54 1001.9
20260509201536 54 276 6.0 14.0 0.00 0.00 0.00 60 1001.7
20260509200034 55 276 5.0 17.0 0.00 0.00 0.00 51 1001.4
20260509194533 54 258 11.0 16.0 0.00 0.00 0.00 58 1001.1
20260509193029 52 276 11.0 19.0 0.00 0.00 0.00 59 1000.9
20260509191528 52 245 13.0 17.0 0.00 0.00 0.00 64 1000.7
20260509190026 51 251 14.0 19.0 0.00 0.00 0.00 64 1000.5
20260509184538 50 277 15.0 21.0 0.00 0.00 0.00 67 1000.4
20260509183026 50 258 16.0 19.0 0.00 0.00 0.00 67 1000.0
20260509181524 51 267 14.0 18.0 0.00 0.00 0.00 66 1000.0
20260509180024 51 260 13.0 18.0 0.00 0.00 0.00 68 999.6
20260509174522 50 263 14.0 20.0 0.00 0.00 0.00 70 999.5
20260509173022 51 278 14.0 21.0 0.00 0.00 0.00 65 999.3
20260509171525 50 258 13.0 19.0 0.00 0.00 0.00 68 999.3
20260509170021 49 276 15.0 24.0 0.00 0.00 0.00 69 999.1
20260509164519 51 262 14.0 27.0 0.00 0.00 0.00 68 998.9
20260509163022 51 288 17.0 23.0 0.00 0.00 0.00 68 998.7
20260509161520 50 267 10.0 20.0 0.00 0.00 0.00 71 998.6
20260509160019 49 257 10.0 19.0 0.00 0.00 0.00 74 998.4
20260509154517 48 258 14.0 20.0 0.00 0.00 0.00 75 998.2
20260509153029 49 255 9.0 24.0 0.00 0.00 0.00 75 998.0
20260509151514 51 275 14.0 23.0 0.00 0.00 0.00 72 997.6
20260509150020 52 274 18.0 27.0 0.00 0.00 0.00 72 997.4
20260509144524 53 287 17.0 22.0 0.00 0.00 0.00 72 997.2
20260509143017 55 269 10.0 14.0 0.00 0.00 0.00 69 996.9
20260509141515 56 258 7.0 15.0 0.00 0.00 0.00 71 996.8
20260509140011 56 264 10.0 16.0 0.00 0.00 0.00 71 996.9
20260509134507 56 246 7.0 16.0 0.00 0.00 0.00 72 996.7
20260509133010 57 250 12.0 17.0 0.00 0.00 0.00 69 996.9
20260509131559 56 261 5.0 8.0 0.00 0.00 0.00 69 996.9
20260509130100 55 255 8.0 11.0 0.00 0.00 0.00 68 997.1
20260509124556 55 44 0.0 3.0 0.00 0.00 0.00 66 997.3
20260509123116 55 259 2.0 5.0 0.00 0.00 0.00 62 997.1
20260509121604 54 215 0.0 2.0 0.00 0.00 0.00 60 997.2
20260509120045 54 254 0.0 3.0 0.00 0.00 0.00 61 997.2
20260509114544 54 240 3.0 10.0 0.00 0.00 0.00 61 997.3
20260509113042 53 260 0.0 3.0 0.00 0.00 0.00 61 997.4
20260509111555 52 255 2.0 3.0 0.00 0.00 0.00 65 997.4
20260509110036 52 236 3.0 6.0 0.00 0.00 0.00 67 997.6
20260509104542 46 108 0.0 0.0 0.00 0.00 0.00 69 997.9
20260509103035 47 110 0.0 1.0 0.00 0.00 0.00 63 997.9
20260509101543 47 250 0.0 0.0 0.00 0.00 0.00 58 998.2
20260509100029 50 250 0.0 1.0 0.00 0.00 0.00 56 998.5